Precipitable_Water
0.48 0.47 0.48 0.48 0.48 0.48 0.49 0.49 0.49 0.49 0.49 0.48 0.47 0.48 0.49 0.49 0.49 0.49 0.49 0.48 0.47 0.46 0.45 0.44 0.46 0.46 0.43 0.40 0.40 0.39 0.41 0.36 0.39 0.38 0.36 0.38 0.28 0.31 0.28 0.30 0.38 0.49 0.57 0.62 0.70 0.53 0.46 0.57 0.65 0.81 0.97 1.05 1.09 1.13 1.13 1.13 1.11 1.28 1.09 1.03 1.01 1.13 1.09 1.30 1.21 1.28 1.33 1.21 1.11 1.12 1.18 1.03 0.87 0.97 0.94 1.11 1.08 1.02 1.03 1.02 1.03 1.12 1.22 1.26 1.26 1.31 1.30 1.30
0.47 0.46 0.46 0.46 0.46 0.46 0.47 0.48 0.48 0.48 0.48 0.47 0.48 0.48 0.48 0.49 0.50 0.49 0.49 0.48 0.46 0.44 0.43 0.44 0.45 0.44 0.46 0.44 0.43 0.46 0.46 0.41 0.38 0.43 0.41 0.44 0.31 0.26 0.25 0.30 0.41 0.49 0.53 0.62 0.61 0.48 0.47 0.47 0.57 0.75 0.87 0.94 1.20 1.11 0.99 1.06 1.09 1.10 1.14 1.07 0.99 1.16 1.28 1.36 1.41 1.45 1.35 1.26 1.20 1.19 1.22 1.13 0.97 0.99 1.03 1.03 0.93 0.96 0.93 0.96 1.08 1.09 1.17 1.23 1.22 1.24 1.26 1.24
0.46 0.45 0.45 0.45 0.45 0.45 0.45 0.46 0.46 0.46 0.47 0.47 0.48 0.48 0.49 0.49 0.50 0.50 0.49 0.48 0.45 0.43 0.42 0.42 0.45 0.47 0.46 0.47 0.49 0.53 0.52 0.48 0.49 0.49 0.59 0.43 0.29 0.30 0.25 0.34 0.43 0.51 0.54 0.64 0.57 0.49 0.43 0.42 0.49 0.71 0.83 1.00 1.13 1.04 0.94 1.03 0.96 1.11 1.05 1.07 1.11 1.24 1.29 1.34 1.41 1.41 1.32 1.35 1.22 1.18 1.21 1.20 1.08 1.07 1.20 1.07 0.95 0.98 0.91 0.92 1.01 1.00 0.99 1.08 1.18 1.19 1.18 1.26
0.47 0.46 0.45 0.45 0.45 0.44 0.44 0.44 0.44 0.46 0.46 0.46 0.47 0.48 0.49 0.51 0.51 0.51 0.50 0.49 0.46 0.44 0.42 0.43 0.45 0.49 0.48 0.50 0.53 0.59 0.58 0.47 0.45 0.53 0.45 0.38 0.32 0.29 0.28 0.38 0.43 0.50 0.64 0.64 0.52 0.46 0.46 0.44 0.48 0.70 0.83 0.93 1.06 0.97 0.82 0.97 0.85 1.07 0.99 1.01 1.13 1.25 1.16 1.27 1.38 1.46 1.51 1.43 1.30 1.25 1.25 1.15 1.16 1.12 1.21 1.02 0.96 0.96 0.97 1.05 1.06 1.00 1.02 1.06 1.14 1.16 1.22 1.28
0.48 0.46 0.45 0.45 0.44 0.44 0.44 0.44 0.44 0.45 0.46 0.47 0.48 0.50 0.51 0.52 0.53 0.53 0.52 0.51 0.49 0.46 0.44 0.44 0.48 0.50 0.48 0.52 0.59 0.68 0.60 0.50 0.43 0.56 0.45 0.38 0.32 0.33 0.32 0.38 0.41 0.48 0.53 0.40 0.40 0.39 0.40 0.42 0.52 0.77 0.80 0.86 0.91 0.82 0.76 0.90 1.00 1.01 0.99 1.19 1.25 1.22 1.13 1.35 1.38 1.48 1.48 1.45 1.32 1.26 1.18 1.11 1.30 1.18 1.13 1.07 0.95 0.93 0.98 1.05 1.10 1.10 1.12 1.10 1.11 1.17 1.28 1.29
0.51 0.49 0.46 0.45 0.44 0.43 0.43 0.43 0.44 0.46 0.46 0.48 0.50 0.50 0.52 0.52 0.53 0.54 0.54 0.53 0.52 0.49 0.46 0.46 0.50 0.51 0.51 0.53 0.59 0.61 0.49 0.25 0.52 0.53 0.49 0.34 0.30 0.36 0.35 0.36 0.38 0.50 0.51 0.36 0.34 0.34 0.35 0.39 0.53 0.69 0.77 0.77 0.86 0.70 0.77 0.80 0.98 0.77 1.17 1.15 1.25 1.28 1.19 1.40 1.45 1.43 1.49 1.34 1.30 1.22 1.29 1.23 1.17 1.12 1.17 1.18 1.09 1.08 1.11 1.13 1.13 1.16 1.16 1.17 1.21 1.25 1.27 1.30
0.50 0.50 0.48 0.45 0.43 0.43 0.42 0.43 0.44 0.45 0.47 0.48 0.50 0.51 0.51 0.52 0.53 0.54 0.54 0.54 0.53 0.52 0.48 0.46 0.51 0.56 0.55 0.56 0.51 0.53 0.43 0.44 0.59 0.53 0.48 0.38 0.33 0.35 0.36 0.36 0.34 0.35 0.34 0.34 0.34 0.35 0.35 0.40 0.53 0.71 0.77 0.63 0.70 0.64 0.64 0.68 0.95 0.89 0.99 1.20 1.18 1.29 1.20 1.36 1.36 1.47 1.46 1.42 1.32 1.40 1.38 1.20 1.13 1.01 1.21 1.10 1.10 1.10 1.08 1.21 1.17 1.18 1.22 1.24 1.20 1.28 1.30 1.31
0.49 0.49 0.49 0.46 0.42 0.41 0.41 0.43 0.45 0.46 0.46 0.48 0.49 0.50 0.51 0.52 0.52 0.53 0.54 0.55 0.55 0.53 0.50 0.48 0.53 0.54 0.58 0.56 0.51 0.49 0.39 0.43 0.58 0.60 0.47 0.40 0.42 0.33 0.35 0.36 0.33 0.30 0.27 0.29 0.30 0.32 0.38 0.41 0.50 0.69 0.61 0.73 0.73 0.58 0.58 0.63 0.82 0.82 0.97 1.16 1.21 1.23 1.24 1.37 1.43 1.48 1.51 1.53 1.42 1.44 1.26 1.18 1.34 1.23 1.20 1.03 1.01 1.04 1.09 1.20 1.16 1.16 1.22 1.24 1.22 1.28 1.32 1.37
0.49 0.49 0.49 0.46 0.42 0.40 0.40 0.42 0.45 0.46 0.47 0.48 0.49 0.50 0.51 0.53 0.53 0.55 0.58 0.59 0.57 0.54 0.52 0.47 0.49 0.55 0.60 0.50 0.41 0.41 0.36 0.44 0.56 0.52 0.48 0.41 0.45 0.46 0.37 0.30 0.29 0.24 0.23 0.25 0.29 0.31 0.35 0.41 0.51 0.59 0.72 0.63 0.64 0.52 0.61 0.59 0.78 0.98 1.14 1.23 1.22 1.19 1.31 1.40 1.46 1.44 1.46 1.51 1.52 1.32 1.33 1.25 1.44 1.44 1.22 1.06 1.01 1.06 1.10 1.16 1.13 1.15 1.17 1.19 1.20 1.28 1.34 1.37
0.49 0.49 0.50 0.45 0.41 0.39 0.39 0.42 0.44 0.46 0.47 0.49 0.49 0.50 0.52 0.53 0.56 0.58 0.60 0.61 0.56 0.53 0.53 0.54 0.53 0.53 0.52 0.45 0.43 0.36 0.35 0.54 0.57 0.49 0.47 0.47 0.48 0.46 0.42 0.39 0.28 0.25 0.24 0.25 0.27 0.30 0.32 0.37 0.55 0.76 0.79 0.58 0.53 0.54 0.71 0.58 0.88 1.13 1.17 1.15 1.16 1.20 1.29 1.44 1.46 1.46 1.62 1.53 1.44 1.24 1.26 1.26 1.43 1.28 1.03 1.22 1.09 1.05 1.09 1.13 1.12 1.12 1.13 1.14 1.21 1.26 1.34 1.40
0.48 0.48 0.48 0.44 0.40 0.39 0.40 0.42 0.45 0.47 0.48 0.48 0.49 0.50 0.52 0.56 0.59 0.60 0.61 0.61 0.57 0.54 0.55 0.57 0.57 0.54 0.43 0.53 0.47 0.24 0.44 0.55 0.59 0.56 0.43 0.52 0.51 0.45 0.42 0.40 0.34 0.29 0.24 0.25 0.24 0.28 0.30 0.34 0.47 0.61 0.47 0.60 0.49 0.55 0.71 0.85 0.86 1.24 1.21 1.16 1.16 1.20 1.29 1.40 1.41 1.50 1.57 1.34 1.40 1.52 1.31 1.42 1.30 1.13 1.15 1.26 1.16 1.08 1.10 1.08 1.08 1.09 1.10 1.15 1.21 1.29 1.36 1.44
0.47 0.47 0.47 0.42 0.41 0.40 0.39 0.43 0.45 0.47 0.48 0.48 0.49 0.51 0.54 0.57 0.58 0.59 0.60 0.59 0.57 0.56 0.57 0.58 0.59 0.54 0.52 0.44 0.26 0.28 0.43 0.50 0.47 0.62 0.47 0.45 0.46 0.46 0.43 0.39 0.36 0.33 0.28 0.22 0.21 0.26 0.28 0.32 0.47 0.55 0.61 0.53 0.48 0.64 0.68 0.79 0.99 1.18 1.20 0.95 1.05 1.09 1.12 1.39 1.40 1.47 1.47 1.31 1.48 1.41 1.31 1.19 1.16 1.01 1.24 1.31 1.20 1.12 1.12 1.05 1.07 1.07 1.06 1.17 1.23 1.30 1.38 1.42
0.50 0.49 0.47 0.43 0.41 0.40 0.40 0.43 0.46 0.47 0.48 0.50 0.51 0.53 0.55 0.57 0.56 0.58 0.60 0.58 0.59 0.58 0.58 0.60 0.63 0.66 0.57 0.36 0.32 0.38 0.45 0.54 0.47 0.48 0.53 0.45 0.42 0.43 0.44 0.39 0.35 0.34 0.30 0.24 0.19 0.24 0.29 0.38 0.60 0.56 0.57 0.47 0.44 0.44 1.11 0.93 1.13 1.06 1.09 0.95 0.85 0.96 0.94 1.23 1.43 1.50 1.40 1.35 1.48 1.39 0.90 1.05 1.13 1.19 1.32 1.42 1.26 1.16 1.12 1.02 1.03 1.05 1.05 1.17 1.22 1.27 1.37 1.43
0.51 0.50 0.47 0.44 0.42 0.41 0.41 0.44 0.46 0.48 0.48 0.50 0.52 0.54 0.56 0.56 0.58 0.59 0.58 0.58 0.59 0.59 0.60 0.60 0.59 0.60 0.55 0.26 0.33 0.38 0.46 0.43 0.42 0.44 0.46 0.50 0.36 0.39 0.38 0.35 0.33 0.32 0.30 0.27 0.23 0.26 0.29 0.37 0.59 0.52 0.48 0.43 0.49 0.74 0.68 0.86 1.04 0.89 1.22 1.04 0.86 0.81 0.81 1.15 1.15 1.37 1.23 1.47 1.42 1.36 0.90 1.07 1.19 1.24 1.38 1.36 1.38 1.20 1.12 1.04 1.02 1.03 1.06 1.12 1.19 1.23 1.35 1.40
0.52 0.51 0.48 0.45 0.43 0.41 0.40 0.44 0.46 0.47 0.48 0.50 0.52 0.54 0.58 0.57 0.59 0.60 0.62 0.58 0.59 0.59 0.62 0.66 0.68 0.59 0.66 0.35 0.44 0.42 0.44 0.55 0.40 0.44 0.51 0.38 0.40 0.34 0.37 0.29 0.25 0.24 0.24 0.22 0.20 0.22 0.30 0.43 0.61 0.49 0.50 0.51 0.45 0.47 0.59 0.89 0.97 0.91 0.75 0.68 0.77 0.84 0.92 1.12 1.17 1.22 1.16 1.32 1.42 1.27 0.88 1.10 1.28 1.33 1.37 1.36 1.34 1.28 1.19 1.09 1.08 1.02 1.09 1.05 1.12 1.19 1.33 1.36
0.53 0.51 0.49 0.46 0.44 0.41 0.40 0.43 0.46 0.48 0.50 0.51 0.53 0.56 0.59 0.62 0.61 0.60 0.61 0.59 0.61 0.61 0.68 0.58 0.61 0.57 0.53 0.40 0.42 0.50 0.46 0.50 0.43 0.45 0.46 0.45 0.40 0.40 0.33 0.27 0.23 0.20 0.17 0.17 0.20 0.24 0.34 0.52 0.53 0.57 0.48 0.43 0.35 0.41 0.58 0.70 0.75 0.74 0.64 0.71 0.73 0.88 0.90 0.93 1.15 1.27 1.27 1.26 1.34 1.21 0.96 1.12 1.23 1.41 1.52 1.53 1.41 1.24 1.28 1.21 1.12 1.05 1.04 1.05 1.06 1.15 1.29 1.32
0.54 0.52 0.50 0.47 0.44 0.42 0.40 0.43 0.48 0.50 0.53 0.55 0.56 0.59 0.61 0.62 0.64 0.61 0.61 0.61 0.62 0.65 0.61 0.58 0.59 0.57 0.32 0.34 0.54 0.49 0.37 0.35 0.34 0.41 0.40 0.45 0.42 0.35 0.29 0.20 0.18 0.16 0.16 0.19 0.20 0.27 0.36 0.41 0.54 0.42 0.38 0.41 0.48 0.49 0.49 0.54 0.55 0.62 0.71 0.66 0.79 0.74 0.83 0.79 1.05 1.18 1.15 1.20 1.09 1.21 1.06 1.13 1.27 1.42 1.52 1.50 1.37 1.28 1.24 1.22 1.13 1.10 1.04 1.06 1.05 1.10 1.27 1.31
0.55 0.52 0.51 0.48 0.45 0.42 0.42 0.44 0.50 0.53 0.55 0.56 0.56 0.57 0.58 0.64 0.64 0.66 0.61 0.63 0.69 0.72 0.67 0.71 0.67 0.47 0.32 0.41 0.34 0.31 0.33 0.35 0.37 0.37 0.40 0.39 0.39 0.32 0.31 0.26 0.21 0.17 0.16 0.16 0.20 0.24 0.35 0.37 0.45 0.38 0.42 0.33 0.46 0.53 0.47 0.48 0.58 0.56 0.63 0.63 0.66 0.80 0.88 0.84 0.88 1.06 1.05 1.10 1.10 1.21 1.08 1.11 1.21 1.38 1.50 1.52 1.48 1.31 1.21 1.31 1.17 1.13 1.07 1.06 1.01 1.05 1.22 1.30
0.56 0.54 0.51 0.49 0.45 0.43 0.42 0.45 0.49 0.53 0.56 0.57 0.60 0.66 0.67 0.70 0.68 0.61 0.54 0.60 0.54 0.69 0.46 0.41 0.50 0.28 0.23 0.27 0.34 0.37 0.39 0.36 0.37 0.36 0.34 0.38 0.33 0.35 0.32 0.33 0.19 0.17 0.16 0.17 0.18 0.24 0.32 0.37 0.36 0.31 0.35 0.36 0.37 0.44 0.50 0.60 0.68 0.64 0.66 0.65 0.65 0.65 0.73 0.78 0.97 1.18 1.22 1.12 1.08 1.10 1.00 1.07 1.21 1.33 1.45 1.53 1.53 1.31 1.29 1.41 1.28 1.16 1.08 1.05 1.00 1.03 1.13 1.29
0.57 0.55 0.51 0.49 0.45 0.43 0.41 0.45 0.49 0.51 0.55 0.53 0.59 0.65 0.66 0.66 0.58 0.40 0.48 0.55 0.47 0.35 0.35 0.33 0.36 0.35 0.40 0.34 0.37 0.39 0.39 0.38 0.32 0.31 0.36 0.33 0.31 0.28 0.28 0.24 0.21 0.19 0.20 0.20 0.23 0.24 0.35 0.21 0.27 0.23 0.29 0.35 0.41 0.46 0.51 0.62 0.65 0.67 0.64 0.62 0.61 0.63 0.73 0.94 1.00 1.03 1.20 0.98 0.98 0.93 0.96 0.97 1.10 1.23 1.37 1.48 1.53 1.43 1.31 1.33 1.44 1.16 1.09 1.04 0.99 1.01 1.08 1.24
0.58 0.54 0.52 0.48 0.45 0.43 0.41 0.44 0.48 0.50 0.55 0.54 0.53 0.51 0.34 0.34 0.36 0.32 0.35 0.37 0.36 0.36 0.37 0.35 0.34 0.34 0.32 0.31 0.36 0.39 0.35 0.32 0.35 0.27 0.33 0.34 0.37 0.30 0.23 0.23 0.18 0.18 0.22 0.27 0.31 0.31 0.33 0.21 0.24 0.26 0.30 0.39 0.50 0.56 0.55 0.53 0.54 0.53 0.56 0.55 0.54 0.62 0.66 0.76 0.82 1.05 1.09 0.84 0.97 0.96 0.93 0.94 1.05 1.23 1.34 1.45 1.44 1.31 1.29 1.32 1.36 1.23 1.08 1.04 1.00 1.01 1.06 1.18
0.59 0.55 0.51 0.48 0.45 0.41 0.40 0.42 0.46 0.51 0.54 0.55 0.54 0.45 0.38 0.39 0.44 0.46 0.43 0.35 0.36 0.36 0.38 0.37 0.36 0.38 0.37 0.36 0.35 0.40 0.40 0.32 0.30 0.29 0.32 0.34 0.35 0.29 0.27 0.19 0.17 0.19 0.21 0.33 0.36 0.29 0.19 0.17 0.26 0.34 0.41 0.43 0.44 0.46 0.47 0.46 0.48 0.48 0.46 0.45 0.47 0.60 0.73 0.83 1.04 0.89 1.03 0.82 0.72 0.97 0.86 0.90 1.03 1.17 1.31 1.36 1.39 1.44 1.41 1.45 1.44 1.32 1.11 1.05 1.00 0.99 1.07 1.13
0.58 0.56 0.51 0.48 0.44 0.42 0.38 0.40 0.44 0.48 0.49 0.50 0.56 0.43 0.38 0.44 0.48 0.50 0.51 0.38 0.34 0.37 0.35 0.36 0.37 0.35 0.35 0.37 0.39 0.43 0.37 0.30 0.28 0.30 0.28 0.35 0.34 0.34 0.31 0.19 0.18 0.21 0.24 0.22 0.26 0.23 0.16 0.18 0.26 0.38 0.40 0.36 0.34 0.31 0.32 0.34 0.35 0.36 0.36 0.36 0.36 0.60 0.52 0.61 0.79 0.89 0.89 0.78 0.83 1.01 0.87 0.92 1.01 1.12 1.23 1.37 1.41 1.47 1.50 1.40 1.44 1.47 1.36 1.08 1.00 0.98 1.04 1.08
0.55 0.56 0.52 0.47 0.45 0.41 0.38 0.35 0.41 0.43 0.42 0.45 0.44 0.42 0.46 0.48 0.48 0.49 0.43 0.41 0.36 0.31 0.36 0.33 0.32 0.33 0.30 0.32 0.36 0.41 0.35 0.27 0.32 0.31 0.32 0.35 0.31 0.29 0.24 0.25 0.19 0.17 0.16 0.18 0.19 0.21 0.24 0.29 0.29 0.34 0.33 0.28 0.25 0.28 0.27 0.29 0.29 0.33 0.32 0.36 0.40 0.47 0.52 0.56 0.72 0.80 0.84 0.88 0.90 0.91 0.87 0.82 0.91 0.92 1.05 1.28 1.47 1.47 1.43 1.45 1.46 1.44 1.37 1.32 1.10 1.03 1.03 1.10
0.53 0.54 0.53 0.48 0.43 0.43 0.37 0.32 0.27 0.42 0.47 0.40 0.41 0.47 0.49 0.50 0.49 0.51 0.38 0.37 0.34 0.33 0.30 0.30 0.33 0.31 0.33 0.35 0.40 0.39 0.32 0.30 0.34 0.32 0.35 0.36 0.28 0.29 0.26 0.23 0.20 0.16 0.17 0.19 0.16 0.17 0.22 0.27 0.31 0.28 0.26 0.24 0.21 0.25 0.28 0.27 0.27 0.30 0.33 0.33 0.37 0.46 0.47 0.54 0.67 0.67 0.69 0.76 1.06 0.70 0.60 0.65 0.86 0.87 0.95 1.13 1.24 1.30 1.46 1.33 1.31 1.39 1.33 1.32 1.12 1.02 1.01 1.09
0.53 0.53 0.53 0.49 0.45 0.40 0.36 0.23 0.30 0.35 0.37 0.39 0.46 0.47 0.52 0.50 0.52 0.52 0.43 0.37 0.31 0.31 0.30 0.30 0.29 0.27 0.32 0.31 0.37 0.38 0.37 0.31 0.34 0.35 0.37 0.36 0.40 0.33 0.23 0.24 0.29 0.27 0.19 0.19 0.14 0.15 0.17 0.21 0.23 0.21 0.20 0.18 0.19 0.20 0.26 0.28 0.23 0.24 0.31 0.35 0.33 0.37 0.46 0.54 0.57 0.61 0.54 0.51 0.82 0.89 0.54 0.53 0.92 0.84 0.94 1.06 1.07 1.18 1.40 1.33 1.31 1.37 1.35 1.40 1.28 1.05 1.01 1.00
0.57 0.53 0.53 0.50 0.46 0.41 0.25 0.31 0.41 0.30 0.31 0.37 0.43 0.49 0.49 0.50 0.55 0.54 0.38 0.34 0.27 0.25 0.23 0.29 0.27 0.26 0.31 0.27 0.30 0.33 0.26 0.29 0.38 0.38 0.36 0.36 0.36 0.41 0.34 0.29 0.18 0.25 0.21 0.19 0.14 0.16 0.16 0.21 0.20 0.17 0.16 0.16 0.17 0.16 0.19 0.22 0.24 0.24 0.39 0.40 0.46 0.50 0.48 0.48 0.53 0.55 0.55 0.78 0.86 0.94 0.80 0.61 0.62 0.79 1.07 1.06 1.00 1.11 1.25 1.31 1.28 1.34 1.38 1.33 1.32 1.13 1.06 1.00
0.63 0.55 0.52 0.51 0.47 0.44 0.30 0.31 0.30 0.27 0.34 0.45 0.48 0.46 0.50 0.54 0.55 0.56 0.37 0.31 0.21 0.28 0.22 0.24 0.27 0.31 0.29 0.27 0.28 0.25 0.28 0.35 0.33 0.35 0.39 0.38 0.39 0.38 0.31 0.27 0.27 0.28 0.20 0.26 0.25 0.25 0.24 0.20 0.17 0.15 0.14 0.15 0.16 0.19 0.21 0.21 0.18 0.22 0.34 0.42 0.45 0.49 0.48 0.51 0.53 0.55 0.59 0.66 0.65 0.76 0.86 0.65 0.59 0.82 1.05 1.07 0.91 0.98 1.11 1.26 1.28 1.31 1.33 1.34 1.32 1.26 1.07 1.03
0.68 0.59 0.54 0.51 0.47 0.46 0.41 0.27 0.26 0.29 0.40 0.45 0.44 0.47 0.49 0.62 0.53 0.40 0.37 0.31 0.28 0.24 0.29 0.23 0.31 0.29 0.27 0.28 0.25 0.26 0.27 0.29 0.29 0.35 0.38 0.38 0.36 0.36 0.33 0.34 0.25 0.23 0.26 0.25 0.27 0.29 0.28 0.25 0.23 0.19 0.17 0.15 0.16 0.18 0.21 0.21 0.18 0.18 0.20 0.23 0.43 0.52 0.51 0.50 0.51 0.55 0.55 0.54 0.50 0.59 0.74 0.56 0.54 0.90 0.95 1.03 0.91 0.88 1.01 1.21 1.25 1.26 1.27 1.30 1.31 1.32 1.14 1.06
0.66 0.62 0.56 0.51 0.46 0.48 0.41 0.34 0.20 0.25 0.33 0.39 0.44 0.47 0.48 0.49 0.41 0.24 0.25 0.21 0.31 0.20 0.25 0.26 0.23 0.25 0.26 0.25 0.25 0.27 0.24 0.28 0.31 0.32 0.35 0.34 0.36 0.36 0.32 0.27 0.26 0.22 0.24 0.26 0.22 0.25 0.29 0.26 0.28 0.23 0.20 0.24 0.27 0.26 0.23 0.22 0.20 0.21 0.26 0.30 0.32 0.38 0.45 0.54 0.57 0.56 0.53 0.41 0.43 0.61 0.72 0.65 0.50 0.74 0.84 0.77 0.81 0.89 0.98 1.16 1.29 1.35 1.30 1.34 1.39 1.34 1.20 1.08
0.58 0.63 0.57 0.53 0.38 0.44 0.33 0.24 0.37 0.29 0.30 0.36 0.44 0.45 0.45 0.41 0.27 0.31 0.26 0.25 0.24 0.24 0.24 0.22 0.25 0.25 0.25 0.24 0.24 0.27 0.25 0.27 0.28 0.32 0.32 0.36 0.35 0.36 0.36 0.33 0.35 0.28 0.29 0.28 0.26 0.29 0.29 0.28 0.23 0.23 0.21 0.24 0.26 0.25 0.27 0.26 0.23 0.20 0.19 0.27 0.30 0.32 0.43 0.45 0.49 0.55 0.42 0.36 0.45 0.70 0.68 0.76 0.48 0.65 0.76 0.92 0.99 1.01 1.01 1.02 1.19 1.31 1.30 1.40 1.34 1.29 1.28 1.11
0.51 0.59 0.59 0.50 0.47 0.46 0.24 0.33 0.41 0.39 0.32 0.41 0.41 0.41 0.39 0.27 0.29 0.21 0.28 0.42 0.22 0.23 0.22 0.24 0.24 0.25 0.25 0.21 0.25 0.21 0.26 0.29 0.28 0.30 0.32 0.34 0.33 0.34 0.35 0.30 0.35 0.24 0.28 0.29 0.26 0.30 0.27 0.27 0.29 0.28 0.26 0.21 0.23 0.18 0.27 0.32 0.29 0.21 0.25 0.28 0.27 0.30 0.35 0.33 0.42 0.37 0.39 0.37 0.63 0.77 0.77 0.58 0.53 0.65 0.82 0.94 0.98 1.00 1.07 1.07 1.15 1.30 1.33 1.32 1.27 1.29 1.39 1.20
0.49 0.53 0.58 0.51 0.48 0.39 0.33 0.36 0.41 0.37 0.35 0.37 0.39 0.40 0.29 0.29 0.27 0.30 0.26 0.23 0.19 0.24 0.23 0.27 0.26 0.24 0.26 0.24 0.25 0.25 0.19 0.26 0.31 0.29 0.28 0.29 0.30 0.29 0.29 0.23 0.27 0.27 0.26 0.24 0.23 0.23 0.28 0.33 0.32 0.31 0.32 0.31 0.25 0.22 0.28 0.33 0.35 0.32 0.26 0.30 0.26 0.26 0.30 0.29 0.32 0.37 0.41 0.46 0.64 0.62 0.86 0.49 0.57 0.66 0.78 0.89 1.04 1.06 1.06 1.11 1.17 1.32 1.44 1.35 1.29 1.32 1.36 1.27
0.46 0.50 0.50 0.51 0.46 0.42 0.38 0.40 0.35 0.37 0.31 0.34 0.34 0.32 0.29 0.26 0.28 0.37 0.28 0.22 0.22 0.25 0.25 0.23 0.24 0.26 0.22 0.24 0.27 0.25 0.25 0.29 0.24 0.32 0.24 0.32 0.25 0.29 0.34 0.28 0.29 0.30 0.30 0.27 0.23 0.23 0.25 0.32 0.38 0.41 0.35 0.45 0.39 0.27 0.34 0.35 0.43 0.41 0.39 0.35 0.33 0.31 0.28 0.28 0.32 0.32 0.36 0.41 0.60 0.77 0.62 0.50 0.48 0.67 0.75 0.88 1.02 1.09 1.12 1.11 1.17 1.29 1.43 1.43 1.45 1.43 1.46 1.29
0.47 0.46 0.50 0.50 0.44 0.38 0.35 0.35 0.35 0.36 0.33 0.33 0.29 0.27 0.24 0.23 0.30 0.32 0.29 0.24 0.24 0.23 0.21 0.25 0.23 0.25 0.26 0.25 0.29 0.25 0.27 0.29 0.26 0.29 0.30 0.29 0.30 0.29 0.25 0.34 0.28 0.28 0.28 0.20 0.29 0.19 0.21 0.24 0.38 0.41 0.39 0.37 0.34 0.40 0.40 0.41 0.41 0.49 0.49 0.42 0.35 0.34 0.40 0.31 0.37 0.39 0.41 0.44 0.46 0.57 0.56 0.72 0.65 0.84 0.91 0.89 0.99 1.06 1.09 1.12 1.12 1.20 1.37 1.49 1.48 1.48 1.46 1.29
0.48 0.54 0.48 0.43 0.40 0.44 0.35 0.34 0.34 0.35 0.32 0.28 0.24 0.23 0.23 0.30 0.32 0.35 0.26 0.29 0.27 0.22 0.24 0.26 0.24 0.23 0.26 0.27 0.30 0.26 0.28 0.24 0.32 0.24 0.30 0.26 0.33 0.29 0.32 0.31 0.30 0.26 0.28 0.27 0.31 0.22 0.27 0.23 0.40 0.41 0.39 0.40 0.36 0.42 0.46 0.46 0.38 0.55 0.53 0.41 0.38 0.45 0.41 0.37 0.35 0.42 0.46 0.48 0.47 0.64 0.58 0.61 0.85 0.85 0.92 0.92 0.89 1.04 1.07 1.05 1.06 1.07 1.27 1.47 1.49 1.46 1.41 1.39
0.48 0.48 0.46 0.47 0.43 0.45 0.40 0.35 0.33 0.32 0.29 0.27 0.22 0.22 0.28 0.33 0.38 0.36 0.37 0.29 0.31 0.26 0.26 0.22 0.25 0.23 0.25 0.26 0.29 0.30 0.28 0.22 0.26 0.22 0.29 0.29 0.27 0.27 0.27 0.32 0.32 0.30 0.32 0.32 0.26 0.30 0.25 0.28 0.37 0.35 0.35 0.50 0.50 0.44 0.51 0.70 0.53 0.48 0.48 0.59 0.57 0.57 0.56 0.47 0.38 0.48 0.52 0.41 0.47 0.60 0.54 0.56 0.62 0.59 0.96 0.96 0.89 1.02 1.03 1.03 1.02 1.05 1.13 1.27 1.44 1.52 1.43 1.45
0.46 0.46 0.41 0.49 0.53 0.49 0.46 0.39 0.34 0.32 0.27 0.22 0.21 0.24 0.33 0.31 0.42 0.40 0.42 0.35 0.30 0.27 0.24 0.24 0.28 0.27 0.26 0.27 0.28 0.30 0.31 0.25 0.28 0.21 0.23 0.31 0.28 0.37 0.32 0.29 0.36 0.29 0.30 0.32 0.24 0.32 0.32 0.24 0.31 0.37 0.36 0.43 0.50 0.43 0.41 0.64 0.62 0.48 0.52 0.74 0.48 0.51 0.44 0.51 0.45 0.35 0.36 0.36 0.41 0.49 0.54 0.55 0.60 0.65 0.85 0.83 0.98 1.01 1.07 1.09 1.06 1.03 1.04 1.13 1.33 1.44 1.46 1.62
0.50 0.43 0.35 0.46 0.48 0.49 0.45 0.42 0.35 0.30 0.23 0.21 0.20 0.21 0.27 0.33 0.42 0.43 0.42 0.36 0.33 0.32 0.25 0.24 0.24 0.28 0.27 0.25 0.29 0.31 0.29 0.20 0.30 0.30 0.22 0.31 0.26 0.33 0.33 0.32 0.33 0.34 0.30 0.29 0.26 0.32 0.30 0.23 0.28 0.34 0.35 0.47 0.46 0.43 0.37 0.52 0.57 0.59 0.61 0.50 0.55 0.50 0.50 0.48 0.50 0.50 0.43 0.38 0.43 0.48 0.54 0.50 0.69 0.75 0.82 0.86 0.88 0.91 1.02 1.12 1.10 1.09 1.07 1.10 1.23 1.40 1.57 1.61
0.55 0.41 0.39 0.58 0.54 0.49 0.47 0.41 0.32 0.30 0.25 0.19 0.22 0.23 0.27 0.25 0.29 0.41 0.44 0.36 0.32 0.26 0.28 0.28 0.26 0.26 0.27 0.27 0.30 0.28 0.30 0.27 0.24 0.27 0.25 0.32 0.29 0.34 0.32 0.31 0.31 0.33 0.30 0.30 0.28 0.31 0.28 0.31 0.23 0.33 0.37 0.36 0.31 0.41 0.39 0.50 0.59 0.61 0.46 0.43 0.51 0.52 0.61 0.54 0.61 0.58 0.47 0.43 0.44 0.44 0.44 0.50 0.75 0.84 0.89 0.90 0.96 1.05 1.05 1.14 1.23 1.20 1.16 1.15 1.19 1.29 1.54 1.63
0.53 0.40 0.45 0.64 0.56 0.51 0.43 0.37 0.29 0.26 0.25 0.25 0.27 0.26 0.23 0.23 0.28 0.36 0.42 0.39 0.34 0.35 0.34 0.31 0.27 0.25 0.28 0.28 0.28 0.28 0.29 0.29 0.27 0.26 0.28 0.28 0.27 0.26 0.35 0.36 0.31 0.31 0.31 0.30 0.32 0.34 0.27 0.29 0.27 0.30 0.33 0.33 0.33 0.45 0.50 0.48 0.56 0.56 0.49 0.48 0.49 0.48 0.46 0.43 0.43 0.54 0.50 0.44 0.41 0.42 0.43 0.55 0.82 1.06 0.92 0.89 1.04 1.09 1.10 1.06 1.21 1.33 1.25 1.19 1.22 1.29 1.48 1.56
0.47 0.32 0.42 0.60 0.58 0.44 0.36 0.27 0.29 0.34 0.29 0.26 0.26 0.26 0.26 0.32 0.30 0.37 0.40 0.40 0.30 0.34 0.35 0.31 0.31 0.28 0.28 0.27 0.30 0.30 0.28 0.28 0.30 0.28 0.29 0.25 0.30 0.29 0.38 0.39 0.33 0.31 0.24 0.27 0.28 0.38 0.34 0.34 0.29 0.28 0.29 0.31 0.38 0.52 0.55 0.56 0.58 0.56 0.52 0.47 0.49 0.56 0.58 0.51 0.42 0.47 0.51 0.49 0.48 0.46 0.43 0.54 0.86 1.04 1.06 0.97 1.13 1.17 1.11 1.20 1.20 1.33 1.33 1.34 1.27 1.28 1.45 1.63
0.57 0.43 0.53 0.61 0.55 0.43 0.36 0.30 0.33 0.31 0.30 0.32 0.34 0.34 0.33 0.33 0.28 0.30 0.34 0.38 0.33 0.30 0.35 0.30 0.28 0.27 0.27 0.27 0.28 0.28 0.30 0.28 0.31 0.29 0.32 0.29 0.29 0.34 0.39 0.34 0.32 0.28 0.23 0.27 0.32 0.32 0.34 0.25 0.26 0.30 0.30 0.34 0.31 0.40 0.50 0.55 0.46 0.42 0.49 0.54 0.53 0.51 0.55 0.53 0.53 0.58 0.47 0.49 0.45 0.45 0.43 0.59 0.81 1.09 1.04 1.01 1.20 1.18 1.12 1.14 1.24 1.31 1.38 1.40 1.40 1.34 1.35 1.55
0.56 0.48 0.52 0.59 0.54 0.46 0.37 0.30 0.30 0.31 0.34 0.37 0.34 0.35 0.36 0.32 0.29 0.27 0.34 0.39 0.34 0.33 0.29 0.32 0.29 0.27 0.28 0.29 0.29 0.28 0.32 0.27 0.32 0.31 0.30 0.33 0.30 0.38 0.38 0.32 0.28 0.33 0.30 0.36 0.27 0.36 0.27 0.41 0.34 0.31 0.27 0.30 0.34 0.44 0.49 0.55 0.55 0.48 0.46 0.51 0.59 0.60 0.65 0.63 0.65 0.69 0.46 0.46 0.45 0.44 0.39 0.55 0.93 1.01 0.97 1.09 1.23 1.18 1.13 1.08 1.19 1.24 1.36 1.34 1.41 1.44 1.39 1.48
0.57 0.56 0.52 0.56 0.51 0.43 0.33 0.36 0.35 0.36 0.41 0.39 0.32 0.31 0.31 0.31 0.33 0.33 0.37 0.35 0.37 0.36 0.35 0.31 0.30 0.29 0.28 0.31 0.29 0.30 0.33 0.30 0.31 0.37 0.35 0.36 0.33 0.41 0.41 0.30 0.32 0.34 0.37 0.40 0.37 0.34 0.26 0.30 0.32 0.27 0.26 0.25 0.24 0.26 0.35 0.46 0.55 0.54 0.53 0.56 0.73 0.71 0.68 0.61 0.53 0.61 0.44 0.47 0.49 0.46 0.46 0.64 0.94 0.92 0.89 0.97 1.13 1.17 1.12 1.13 1.16 1.28 1.33 1.37 1.42 1.45 1.44 1.49
0.60 0.50 0.45 0.49 0.49 0.42 0.38 0.42 0.42 0.44 0.48 0.44 0.37 0.37 0.34 0.31 0.36 0.34 0.38 0.40 0.44 0.41 0.37 0.37 0.33 0.31 0.28 0.28 0.28 0.29 0.30 0.34 0.29 0.33 0.38 0.33 0.32 0.38 0.39 0.37 0.30 0.32 0.47 0.40 0.33 0.32 0.28 0.30 0.31 0.29 0.28 0.28 0.33 0.39 0.47 0.49 0.49 0.45 0.55 0.55 0.57 0.59 0.58 0.70 0.61 0.48 0.41 0.49 0.48 0.54 0.58 0.68 0.68 0.81 0.76 0.91 1.09 1.08 1.12 1.09 1.12 1.15 1.27 1.33 1.39 1.45 1.51 1.52
0.65 0.51 0.51 0.42 0.49 0.45 0.41 0.41 0.39 0.43 0.42 0.49 0.43 0.45 0.37 0.33 0.36 0.39 0.40 0.34 0.43 0.41 0.40 0.36 0.37 0.31 0.28 0.28 0.28 0.29 0.32 0.32 0.35 0.32 0.34 0.33 0.35 0.34 0.41 0.38 0.36 0.33 0.34 0.28 0.30 0.24 0.27 0.25 0.28 0.31 0.33 0.32 0.32 0.33 0.37 0.43 0.40 0.43 0.43 0.46 0.52 0.54 0.57 0.55 0.58 0.53 0.60 0.50 0.45 0.68 0.65 0.53 0.62 0.66 0.76 0.91 1.03 1.11 1.11 1.12 1.16 1.15 1.20 1.26 1.31 1.44 1.51 1.54
0.59 0.64 0.66 0.73 0.56 0.45 0.41 0.40 0.44 0.43 0.44 0.44 0.44 0.48 0.40 0.36 0.35 0.40 0.46 0.41 0.43 0.45 0.36 0.36 0.36 0.35 0.32 0.30 0.30 0.29 0.32 0.33 0.36 0.34 0.35 0.34 0.35 0.36 0.38 0.41 0.34 0.41 0.37 0.34 0.38 0.30 0.26 0.24 0.32 0.32 0.31 0.31 0.31 0.33 0.34 0.45 0.49 0.46 0.45 0.49 0.51 0.53 0.51 0.48 0.52 0.59 0.68 0.54 0.44 0.61 0.74 0.60 0.62 0.64 0.74 0.91 1.10 1.06 1.08 1.12 1.20 1.16 1.23 1.27 1.27 1.28 1.34 1.47
0.65 0.70 0.69 0.73 0.57 0.57 0.55 0.56 0.60 0.53 0.51 0.51 0.50 0.50 0.45 0.43 0.39 0.40 0.46 0.47 0.40 0.41 0.37 0.34 0.34 0.35 0.34 0.33 0.32 0.32 0.34 0.33 0.34 0.38 0.36 0.37 0.34 0.34 0.34 0.37 0.41 0.47 0.44 0.33 0.38 0.39 0.29 0.22 0.25 0.28 0.28 0.26 0.26 0.28 0.32 0.33 0.45 0.43 0.45 0.47 0.49 0.51 0.50 0.49 0.48 0.56 0.66 0.63 0.70 0.64 0.65 0.63 0.68 0.73 0.86 1.02 1.14 1.11 1.14 1.19 1.19 1.20 1.19 1.26 1.27 1.29 1.33 1.41
0.59 0.57 0.64 0.74 0.66 0.61 0.63 0.65 0.64 0.60 0.54 0.60 0.52 0.53 0.49 0.48 0.43 0.44 0.45 0.45 0.43 0.44 0.45 0.36 0.39 0.39 0.36 0.34 0.33 0.32 0.35 0.38 0.38 0.39 0.43 0.37 0.36 0.38 0.37 0.38 0.37 0.43 0.42 0.35 0.35 0.42 0.27 0.27 0.32 0.28 0.24 0.25 0.28 0.29 0.30 0.31 0.32 0.38 0.39 0.44 0.51 0.55 0.52 0.49 0.49 0.50 0.54 0.56 0.68 0.69 0.69 0.69 1.04 1.06 1.02 1.12 1.17 1.16 1.18 1.15 1.13 1.17 1.21 1.22 1.23 1.28 1.38 1.47
0.71 0.68 0.69 0.61 0.56 0.59 0.61 0.58 0.58 0.58 0.55 0.56 0.51 0.53 0.53 0.51 0.47 0.48 0.49 0.54 0.51 0.49 0.46 0.43 0.41 0.41 0.40 0.37 0.34 0.33 0.36 0.38 0.41 0.39 0.40 0.42 0.37 0.42 0.37 0.42 0.41 0.37 0.36 0.35 0.36 0.37 0.34 0.29 0.28 0.27 0.21 0.21 0.26 0.28 0.31 0.31 0.32 0.31 0.32 0.38 0.45 0.49 0.47 0.49 0.48 0.52 0.52 0.55 0.58 0.61 0.60 0.60 0.79 1.07 1.08 1.09 1.14 1.13 1.14 1.18 1.17 1.20 1.23 1.25 1.26 1.27 1.31 1.43
0.76 0.80 0.77 0.64 0.53 0.63 0.59 0.61 0.59 0.56 0.51 0.57 0.58 0.61 0.56 0.53 0.52 0.54 0.49 0.56 0.58 0.55 0.54 0.54 0.50 0.44 0.42 0.39 0.36 0.35 0.37 0.37 0.38 0.39 0.40 0.40 0.42 0.42 0.44 0.43 0.41 0.37 0.35 0.34 0.40 0.38 0.38 0.34 0.27 0.29 0.26 0.23 0.29 0.30 0.32 0.34 0.31 0.23 0.26 0.32 0.36 0.42 0.46 0.50 0.57 0.66 0.60 0.70 0.62 0.52 0.55 0.74 0.86 0.96 1.00 1.02 1.05 1.13 1.16 1.21 1.20 1.23 1.28 1.27 1.27 1.23 1.18 1.25
Wind_Speed
11 11 11 12 12 12 12 13 13 13 12 12 11 11 10 10 9 9 9 9 9 9 9 8 8 8 8 8 7 7 7 8 8 9 9 9 8 9 9 9 9 10 10 10 9 8 8 7 6 5 5 5 4 3 3 3 3 3 2 3 1 2 2 3 4 4 6 9 10 9 8 7 7 7 7 7 7 7 7 7 8 8 9 10 12 13 13 12
11 11 12 12 12 13 13 13 13 13 13 12 12 11 11 10 10 10 9 9 9 9 8 8 8 8 8 7 6 6 6 7 9 9 9 8 8 9 9 10 10 10 11 10 9 9 8 7 6 6 6 5 4 4 4 3 3 3 2 2 2 1 2 3 3 4 5 8 9 9 7 7 7 8 7 6 7 7 7 8 9 10 11 12 12 13 12 12
11 11 12 12 13 13 13 13 13 13 13 12 12 12 11 11 11 10 10 9 9 8 8 7 7 7 7 6 6 6 6 7 8 8 7 8 9 9 9 10 10 11 11 10 9 9 8 6 6 6 7 6 5 5 5 4 3 3 2 2 2 0 2 2 3 4 6 8 8 8 7 7 7 7 7 6 7 7 7 9 10 11 12 12 12 12 12 12
11 11 12 12 13 13 14 14 14 14 13 13 12 12 11 11 11 11 10 10 9 8 7 7 6 6 6 5 6 6 7 8 7 6 7 8 8 9 9 10 11 11 11 10 9 9 8 7 6 7 7 6 6 7 5 3 4 3 3 2 1 1 1 2 4 4 7 8 8 8 7 7 7 7 7 7 7 7 7 8 9 11 12 13 13 12 12 12
11 12 12 12 13 14 14 14 14 14 13 13 12 12 12 11 11 11 10 10 9 8 7 7 6 6 5 6 5 6 7 7 5 5 7 8 8 9 10 10 11 11 11 10 10 9 9 8 7 7 7 6 6 6 5 3 4 4 3 2 1 2 2 2 4 5 6 8 8 8 8 8 7 7 7 7 6 6 7 9 9 11 12 13 13 12 11 11
12 12 12 13 13 14 14 15 14 14 14 13 13 12 12 11 11 11 10 10 9 8 7 6 6 5 5 6 5 7 7 5 5 6 7 8 8 9 10 11 11 11 11 11 11 10 10 9 8 8 7 6 6 5 4 4 4 5 4 3 2 3 3 4 5 7 8 8 9 8 8 8 8 7 7 6 6 7 8 9 10 11 12 12 12 12 11 11
12 12 13 13 14 14 15 15 15 14 14 13 13 12 12 11 11 10 10 9 9 8 7 6 5 5 5 6 5 7 6 4 4 5 6 8 9 9 10 11 11 11 11 12 11 11 10 10 9 8 7 6 6 5 5 5 5 5 4 4 4 5 5 5 7 10 10 9 10 9 9 8 8 8 6 6 6 8 9 9 11 12 12 12 12 11 11 10
13 13 13 13 14 14 15 15 15 14 14 13 13 12 12 11 11 10 10 9 9 8 6 6 5 5 5 5 5 6 4 3 4 5 5 7 8 9 11 11 12 12 12 13 12 11 11 11 10 9 8 6 6 6 6 6 6 5 5 5 5 6 5 5 6 9 10 9 9 10 9 8 7 7 6 6 8 9 9 10 12 13 13 12 11 11 11 10
13 13 13 14 14 15 15 15 15 14 14 13 13 12 12 11 11 10 10 9 8 7 5 5 4 5 4 4 5 5 4 3 4 4 5 6 8 9 10 11 12 12 13 12 12 12 11 11 10 9 8 7 6 6 6 6 5 3 3 4 4 4 3 2 4 9 11 10 10 11 10 9 9 8 6 6 8 9 9 11 12 13 13 12 11 11 10 10
14 14 14 14 14 15 15 15 15 14 14 13 13 12 12 11 11 10 9 8 7 6 4 4 4 4 4 4 5 5 4 4 4 4 5 5 7 8 10 11 11 12 13 12 13 13 12 11 10 9 9 8 7 7 6 6 5 3 2 2 2 2 2 1 4 10 13 11 10 10 10 9 8 8 6 6 8 9 10 12 12 12 12 12 11 11 10 10
14 14 14 14 15 15 15 15 14 14 13 13 12 12 12 11 10 9 8 7 6 5 3 3 3 3 3 5 5 3 4 5 4 4 5 5 6 8 9 10 11 12 12 13 13 13 13 12 10 10 8 7 8 8 6 6 6 4 3 2 1 0 1 2 7 11 11 9 8 8 9 8 7 7 7 7 9 10 10 12 12 12 12 12 12 11 10 10
14 14 14 14 15 15 15 14 14 13 13 13 12 12 11 11 9 8 7 5 5 4 3 3 3 2 3 4 3 2 4 5 4 5 5 5 6 7 8 8 10 11 11 12 13 14 14 12 12 12 9 8 8 8 7 7 7 6 4 3 2 2 3 3 7 9 8 7 7 8 9 9 9 8 8 8 9 10 10 12 13 12 12 12 12 11 10 10
14 14 14 15 15 15 15 14 14 13 13 12 12 12 11 10 8 7 5 4 5 4 3 3 3 2 3 2 2 2 4 4 4 5 5 5 5 5 6 7 9 10 10 11 12 13 14 13 13 13 11 10 9 7 7 8 8 7 5 5 4 3 4 4 7 8 8 7 6 8 8 9 10 9 9 10 10 10 11 12 13 12 12 12 11 11 10 10
14 14 15 15 15 15 15 14 13 13 13 12 12 12 11 9 7 5 4 4 5 4 3 3 2 2 2 1 2 2 2 3 3 4 5 5 5 5 5 7 8 9 10 10 10 11 13 13 14 13 12 12 9 7 9 9 9 8 6 6 5 5 4 5 7 8 9 8 8 9 8 7 10 11 11 11 11 11 11 12 13 12 12 12 11 11 11 10
14 14 15 15 15 15 15 14 13 13 12 12 12 11 10 8 6 4 4 4 4 3 3 2 2 1 1 1 2 1 0 2 3 3 4 5 5 4 5 6 7 8 9 10 10 11 12 13 14 13 12 13 12 11 10 9 9 9 8 6 6 6 5 5 6 8 9 8 9 11 9 7 9 11 12 12 11 12 11 12 13 13 13 12 12 11 11 11
14 14 14 15 15 15 15 13 13 12 12 12 11 10 8 6 5 3 4 4 4 2 2 2 2 1 2 2 1 1 0 1 2 2 3 4 4 4 4 5 6 8 8 9 9 10 12 13 13 12 11 12 12 12 10 10 10 10 10 7 7 7 6 6 6 7 9 8 11 12 10 8 9 11 12 13 13 12 12 12 13 13 13 13 12 12 11 11
14 14 14 15 15 15 14 13 12 12 12 12 11 9 7 5 3 3 4 4 3 2 2 3 3 1 2 2 1 0 1 1 1 2 2 3 3 3 4 4 5 7 7 8 9 10 11 13 13 12 12 12 12 11 11 12 10 10 9 9 8 7 6 6 6 7 8 8 10 12 11 9 10 12 13 13 13 13 12 12 13 13 13 13 12 12 12 12
15 15 14 15 15 15 14 13 13 12 11 11 10 7 5 4 3 3 3 3 4 3 2 3 3 1 1 2 1 1 1 0 1 2 2 2 3 4 4 4 4 5 6 7 8 10 10 11 12 12 13 13 12 12 12 11 9 9 8 8 8 7 7 7 6 7 8 8 9 11 11 11 11 12 13 13 13 14 14 13 13 14 14 13 13 13 13 12
15 15 15 15 14 14 14 13 12 11 11 10 8 6 4 3 2 2 3 2 2 3 2 2 2 1 2 2 2 2 1 1 1 2 2 2 3 4 4 3 4 5 6 6 7 9 9 10 11 11 13 14 14 15 13 11 10 11 10 8 8 8 8 7 7 8 8 10 10 10 11 12 12 12 13 13 13 15 14 12 12 14 14 14 14 13 13 13
15 15 15 15 14 14 13 13 12 11 10 9 7 5 3 3 2 1 2 2 2 4 3 3 3 2 2 3 2 1 1 1 1 1 2 3 3 4 4 4 5 5 6 5 5 7 8 9 10 11 13 13 14 16 15 12 12 13 13 11 10 10 9 8 8 8 8 8 9 10 10 11 12 12 13 13 14 15 15 13 14 15 15 14 14 14 14 14
15 15 15 15 14 14 13 12 11 10 9 7 6 5 3 4 2 2 3 2 2 3 3 3 4 3 3 3 3 1 1 1 0 0 2 3 4 5 4 4 5 5 5 5 4 5 6 8 10 11 11 10 10 13 15 15 14 14 14 13 12 10 9 10 9 8 8 8 8 9 10 11 12 12 12 13 14 16 16 16 16 15 16 15 15 15 15 14
16 15 15 15 14 14 13 12 11 10 8 6 5 4 3 4 2 2 4 2 1 2 2 3 2 2 3 3 3 1 2 1 1 1 1 3 4 5 3 4 6 5 5 6 5 5 6 8 10 9 8 9 10 11 14 16 16 15 15 14 13 11 10 11 10 9 9 9 8 9 9 10 11 11 12 13 14 17 16 15 16 15 15 16 16 15 16 15
16 16 15 15 14 14 13 12 11 9 7 6 6 4 3 3 3 3 3 3 1 1 2 2 2 2 2 3 3 1 2 1 0 1 1 3 4 4 4 5 5 4 5 8 8 6 5 7 9 8 7 10 12 12 14 15 16 16 16 15 14 12 12 11 11 10 10 10 10 9 9 9 10 11 12 13 14 15 15 16 18 16 14 16 17 16 16 16
17 16 15 15 15 14 13 12 10 8 6 7 6 4 3 3 4 4 4 4 2 1 2 2 3 2 3 3 2 1 1 1 0 1 1 3 3 2 4 5 6 6 6 9 10 10 7 4 4 5 7 10 12 12 14 14 15 16 17 17 15 14 14 12 10 10 10 11 11 9 9 10 11 11 12 12 12 14 16 18 20 19 15 16 17 17 17 17
17 17 16 15 15 14 14 11 8 7 6 7 5 3 4 4 4 4 5 5 3 1 2 2 2 2 2 2 2 2 0 2 2 1 1 3 3 2 3 4 5 6 5 7 9 11 10 6 5 7 8 9 11 12 13 14 14 16 17 18 18 17 16 14 11 11 11 11 9 8 10 10 10 11 12 13 12 14 17 20 21 20 17 16 18 18 18 18
18 17 16 15 15 14 12 9 7 7 7 7 4 4 5 5 5 5 5 5 5 2 2 2 1 1 1 1 1 2 0 2 3 2 0 2 3 3 3 3 4 5 5 7 9 10 9 7 7 10 10 10 11 12 13 13 14 14 13 15 16 16 16 15 14 14 13 11 9 10 11 10 9 11 12 13 14 14 17 21 22 21 20 18 18 19 19 19
18 17 16 15 15 13 10 8 8 8 7 5 4 5 5 5 5 4 5 5 5 3 2 1 1 1 1 1 1 2 1 2 1 1 1 1 2 2 3 4 5 5 5 7 7 8 9 7 7 10 11 10 11 11 12 13 15 14 11 12 14 14 16 17 16 15 14 12 11 11 13 12 11 11 12 13 14 14 16 21 24 22 22 21 19 20 20 20
18 18 16 15 14 13 10 9 9 8 7 5 5 6 5 6 5 4 5 5 3 3 3 2 1 2 1 1 2 2 2 0 2 1 1 1 1 2 3 4 5 4 4 7 6 5 8 10 9 10 10 10 10 11 11 13 15 15 13 13 14 15 16 17 17 17 15 14 14 13 14 13 10 10 12 12 14 15 16 21 25 24 23 23 21 21 21 21
18 18 17 15 15 13 10 10 10 9 7 7 7 7 6 6 6 5 7 6 4 5 4 3 3 3 3 3 2 2 1 1 2 1 0 2 2 3 5 4 5 6 6 8 8 5 6 8 8 9 9 9 9 10 11 11 13 15 15 15 16 16 16 16 17 17 16 16 16 14 14 13 10 10 11 12 14 15 14 17 24 26 25 24 24 23 22 21
18 18 17 15 14 11 10 10 10 10 8 8 8 7 7 7 7 7 8 6 4 5 4 4 4 3 4 5 3 2 2 2 2 1 1 2 2 3 4 4 5 6 6 8 10 8 6 7 8 9 10 9 9 9 9 11 13 15 15 15 16 16 16 15 16 16 16 17 17 15 14 13 12 10 11 12 13 15 14 15 20 26 26 25 25 24 23 22
18 18 17 15 13 11 10 9 8 9 8 8 8 8 8 7 7 9 8 6 5 5 5 5 4 4 5 6 5 3 3 3 2 3 3 3 3 4 4 5 5 6 7 8 10 10 9 8 8 8 10 10 10 10 10 11 14 15 14 14 15 15 14 14 15 16 16 16 15 14 15 16 14 11 12 13 13 14 15 14 17 24 28 26 26 25 24 23
19 18 17 15 13 12 11 9 8 8 8 8 8 8 8 7 9 10 7 6 7 6 5 5 4 5 5 6 5 3 4 3 3 5 5 5 5 4 4 6 6 6 7 6 6 7 8 9 7 7 9 10 10 10 10 10 11 13 14 14 14 14 13 13 14 15 16 16 13 12 14 16 15 12 13 14 14 14 15 15 15 21 28 28 26 26 25 24
19 19 17 15 14 12 12 11 10 9 8 8 9 8 8 8 9 9 7 6 5 5 5 5 4 5 6 6 5 3 4 3 3 5 5 5 6 4 5 7 7 6 5 4 5 6 6 6 7 7 7 9 10 10 8 8 9 11 13 14 14 14 13 13 14 14 15 16 14 12 13 15 14 12 12 14 14 13 15 16 15 18 25 28 26 26 26 26
20 19 17 14 13 13 12 11 11 10 9 9 9 9 10 11 9 7 7 6 5 6 6 6 6 6 7 6 4 5 6 5 4 5 4 5 6 5 4 4 5 6 6 5 7 7 6 6 6 6 5 6 9 11 10 9 9 11 12 13 14 14 14 13 12 13 13 13 12 12 12 11 11 10 10 12 13 13 13 16 16 16 21 26 26 26 27 27
20 17 15 13 13 13 12 12 11 10 10 10 10 10 11 11 9 8 9 7 6 7 7 6 7 8 8 7 4 6 7 5 4 6 6 5 5 4 3 3 3 6 6 6 5 6 7 6 5 5 6 6 9 10 10 10 10 10 11 13 15 14 15 14 14 13 13 12 11 12 13 11 10 10 10 10 12 13 13 14 16 16 18 23 26 26 27 27
18 15 14 13 12 12 11 12 11 11 11 10 11 12 12 11 9 8 7 6 6 7 8 8 8 9 8 7 6 5 6 6 5 6 7 6 5 5 5 6 5 6 7 7 6 5 7 5 4 6 8 7 8 8 8 10 10 9 10 12 12 12 14 15 14 13 13 13 13 13 14 12 10 10 10 10 12 13 13 14 15 16 16 19 24 27 27 27
16 14 14 13 12 11 11 11 11 11 12 12 12 12 12 12 11 8 7 7 7 7 8 8 8 8 7 7 7 6 6 7 6 6 5 6 6 5 5 6 6 7 8 8 7 5 7 8 6 7 8 5 6 9 9 9 10 10 10 11 11 11 14 14 13 12 13 14 12 12 14 12 10 10 10 9 10 12 14 15 15 16 16 16 22 28 29 28
16 15 15 13 11 11 11 11 12 12 12 12 14 14 13 11 10 10 9 9 9 8 9 9 7 7 7 7 6 5 6 6 5 5 6 5 5 5 6 6 5 7 8 8 8 6 7 8 6 4 6 5 6 9 9 8 10 11 10 10 10 11 11 12 13 13 13 13 11 12 15 13 10 10 9 8 9 11 13 15 16 17 17 16 19 25 29 29
16 15 14 12 12 12 12 12 12 13 13 13 14 14 14 13 11 10 11 11 11 10 10 11 9 8 8 8 5 5 7 6 5 6 7 5 5 5 7 7 5 6 7 7 9 8 7 8 7 5 5 5 6 7 8 8 10 13 12 11 12 11 10 11 11 12 13 12 9 10 13 12 9 9 9 8 9 9 10 14 17 18 18 18 19 23 27 29
16 15 13 12 12 12 12 12 13 13 13 14 14 13 13 15 13 13 12 12 12 11 10 11 10 9 9 9 8 8 8 8 7 7 6 5 6 7 7 7 7 6 6 7 9 9 8 8 9 8 6 6 6 6 7 7 7 10 11 11 12 12 12 12 11 12 13 13 10 9 10 10 9 9 9 9 9 9 9 10 14 17 19 18 19 21 25 29
16 15 13 12 13 12 12 13 14 14 14 14 15 14 13 13 13 13 13 13 13 13 12 11 10 10 9 9 9 9 8 9 9 8 8 7 7 7 6 5 7 7 7 7 8 7 8 8 9 9 8 8 7 6 8 8 7 7 9 10 11 11 11 11 11 13 14 13 12 11 11 9 8 9 8 8 9 10 10 8 9 14 18 18 18 19 22 28
16 14 13 13 13 13 14 14 14 14 14 14 14 13 13 12 13 13 13 14 14 14 13 13 12 12 10 10 10 9 9 9 9 8 7 7 6 6 4 5 7 8 8 9 8 7 8 9 10 10 10 10 8 6 8 8 8 9 9 9 10 11 11 10 10 12 13 14 13 13 13 11 9 8 7 8 9 9 10 10 8 10 14 16 17 18 20 25
15 14 13 14 15 15 15 15 15 15 15 15 14 13 12 13 15 15 14 14 14 14 14 13 13 13 12 12 11 9 9 10 9 8 7 8 8 6 5 7 8 8 8 9 7 6 8 9 10 11 11 11 9 7 9 9 9 10 10 10 10 11 11 10 11 12 13 14 13 13 13 11 9 9 8 9 10 8 7 9 8 8 10 13 15 17 19 22
16 15 14 14 16 16 16 15 15 15 15 16 16 15 15 14 15 15 14 14 14 14 14 14 14 14 12 12 11 10 9 9 9 9 9 9 8 6 6 8 8 8 9 8 5 5 7 7 8 9 10 10 9 8 9 9 9 10 9 8 10 12 14 13 12 12 13 14 13 13 12 10 9 9 8 9 10 8 6 7 7 7 8 11 13 15 18 21
17 16 15 14 16 17 18 16 15 14 15 16 17 17 16 15 16 16 15 15 15 15 14 14 14 14 12 12 11 11 10 9 9 9 9 9 7 6 8 8 8 9 8 7 8 8 9 8 8 9 9 9 8 8 8 8 8 9 7 8 11 14 15 13 12 11 11 12 12 13 12 11 10 8 7 9 10 8 8 7 7 7 8 10 12 13 16 20
16 15 14 14 16 18 19 18 18 16 15 15 15 17 17 16 16 17 17 16 15 15 15 14 13 14 13 13 13 13 12 11 10 9 9 10 9 8 7 8 9 9 6 7 10 11 10 10 10 11 11 11 11 10 10 10 11 11 9 11 14 14 12 11 11 11 11 11 11 12 12 12 11 8 8 10 10 9 8 8 7 8 8 9 11 12 14 18
15 14 14 13 15 17 18 19 20 19 17 16 14 15 17 17 16 16 17 17 16 16 17 16 15 14 15 15 14 13 13 12 12 11 10 11 11 8 7 9 10 8 6 9 11 10 10 11 11 12 12 13 14 12 11 11 13 14 13 13 14 13 12 12 11 11 12 13 12 10 12 13 11 9 10 11 10 9 8 8 8 9 9 9 11 12 13 17
16 16 15 14 14 15 16 17 18 19 20 19 16 15 16 17 17 15 15 16 17 16 16 17 17 17 16 15 14 14 13 12 12 12 11 11 11 9 8 10 10 8 8 10 11 9 10 11 12 12 11 12 13 12 11 11 11 12 14 14 14 13 14 14 13 12 13 14 13 12 13 14 12 11 12 12 11 9 9 8 7 8 10 9 10 12 13 15
16 17 16 16 17 17 16 15 16 18 19 18 18 18 17 18 19 17 16 16 17 17 17 17 17 18 18 17 15 14 13 12 12 12 12 12 11 10 9 9 9 8 8 10 10 10 10 11 11 12 12 12 13 12 11 11 11 12 14 15 15 15 16 16 15 15 14 14 14 13 14 14 13 13 12 12 10 9 10 9 7 8 9 9 10 11 12 13
16 17 16 17 18 19 18 17 16 17 18 17 18 19 19 19 19 18 18 18 17 17 18 19 18 18 18 19 18 16 15 14 13 12 11 12 12 11 10 10 9 8 8 9 9 9 10 10 10 11 12 12 13 13 12 12 12 12 13 15 16 17 17 17 17 17 16 15 14 14 14 14 13 12 13 13 11 9 10 10 8 8 8 9 9 10 10 11
17 17 17 17 18 18 18 18 18 18 18 17 18 18 19 20 20 19 19 19 19 18 17 18 20 19 18 18 19 18 16 15 14 13 12 12 12 10 9 8 9 9 9 9 9 10 11 11 10 11 12 12 12 12 11 11 12 14 15 15 16 17 17 17 17 16 15 15 15 15 15 14 12 11 13 14 12 10 10 10 9 8 8 8 9 9 9 10
17 17 17 18 18 17 17 17 18 18 18 18 18 18 18 19 20 20 19 18 19 20 19 17 17 17 17 18 18 18 18 16 15 15 14 12 12 11 10 8 9 10 11 10 10 11 12 12 12 11 11 12 11 10 9 10 12 13 12 11 13 15 15 16 16 15 15 16 16 15 15 13 13 12 13 14 13 11 10 9 9 8 9 9 8 8 8 9
Wind_Direction
16 14 11 9 6 4 1 359 357 355 352 350 348 346 343 339 335 330 325 321 316 310 303 296 290 284 279 276 269 262 253 244 236 227 229 236 231 227 226 219 216 216 212 214 218 221 227 230 232 234 228 230 238 249 255 266 309 320 331 359 10 194 146 124 141 140 145 150 147 146 140 129 126 123 122 124 124 124 126 124 124 124 127 134 138 141 143 142
12 10 8 6 3 1 358 356 354 352 350 348 346 343 341 338 335 331 327 323 319 313 305 298 292 286 280 273 265 257 248 242 237 231 233 237 229 225 222 215 214 212 209 213 218 221 228 231 230 228 230 234 235 247 251 257 289 305 333 358 6 195 159 142 157 136 143 156 147 147 143 132 130 128 131 127 124 129 129 128 128 127 128 132 138 142 144 144
8 7 5 3 1 358 356 354 352 350 348 346 344 341 339 336 333 330 327 324 321 316 308 300 295 288 280 268 258 248 244 245 238 231 233 233 227 224 218 213 212 208 209 217 223 226 234 243 237 227 232 237 236 246 249 255 272 286 310 326 14 66 158 173 188 142 150 167 152 150 147 136 134 133 137 132 130 133 132 135 137 137 136 138 142 144 145 145
5 3 1 360 358 356 354 352 350 348 346 344 342 339 337 334 331 328 326 324 320 317 311 303 296 289 277 264 255 247 248 247 236 231 237 232 226 222 216 212 211 207 212 224 228 229 236 241 236 229 235 240 237 241 245 252 263 270 295 307 341 282 199 193 214 170 164 175 161 154 151 143 141 139 138 134 135 136 136 142 143 145 143 143 146 147 147 148
2 1 359 357 356 354 352 350 349 347 345 343 340 338 336 333 330 327 324 322 320 317 311 302 294 286 273 264 256 247 251 246 232 237 238 231 225 221 216 213 212 211 219 225 224 227 231 232 230 227 232 240 237 237 243 250 265 262 276 303 265 259 258 215 226 212 191 178 166 162 155 150 148 145 140 134 136 139 141 145 146 149 146 146 148 148 150 150
360 358 357 356 354 353 351 350 348 346 345 342 340 338 335 333 330 326 324 321 319 315 309 301 290 282 271 268 256 244 247 244 238 243 236 229 224 220 217 215 215 217 223 223 222 224 225 225 225 225 231 239 238 238 249 253 263 258 262 291 288 288 267 238 232 222 212 185 172 169 159 157 155 149 144 133 131 139 142 143 146 149 148 147 149 150 151 151
358 356 355 354 352 352 350 349 348 346 344 342 341 339 336 335 331 328 325 321 320 314 308 300 289 280 273 265 254 244 243 246 244 243 235 227 221 219 218 216 217 220 223 222 222 222 221 221 223 228 233 240 241 239 253 249 245 255 266 285 292 297 279 255 237 218 214 197 179 173 167 165 158 152 150 139 138 143 141 142 146 149 150 149 150 152 152 151
357 356 354 353 352 351 349 348 347 345 344 343 341 340 338 336 333 330 326 323 321 316 306 300 288 279 276 264 258 247 240 257 252 243 236 225 221 219 217 216 218 222 224 223 222 222 222 223 225 231 235 244 246 239 250 245 240 257 265 275 287 296 290 271 241 213 207 202 186 178 174 163 154 154 147 140 145 145 142 143 148 150 152 152 152 153 153 152
357 356 354 353 351 350 349 347 346 345 344 343 342 341 340 338 335 332 330 327 325 321 309 300 287 278 277 265 264 252 245 272 256 243 236 225 223 219 217 218 220 223 225 223 223 224 221 221 226 234 241 250 248 240 249 247 246 261 255 268 291 304 315 296 235 202 195 197 189 181 175 163 160 161 146 143 149 146 147 148 149 153 155 155 155 155 155 154
357 356 354 353 351 350 348 347 346 345 344 344 342 342 340 338 337 335 333 332 332 330 318 308 294 279 267 255 270 259 247 263 250 241 236 227 225 220 221 224 223 224 226 224 222 223 220 224 234 236 241 248 243 240 245 247 246 234 229 260 294 320 18 70 187 185 187 191 189 183 177 167 164 168 160 157 158 153 152 152 153 156 157 157 157 157 157 156
356 355 354 352 350 349 347 346 346 346 345 344 342 341 340 338 337 335 335 336 339 339 332 324 304 285 263 254 279 273 246 254 247 238 231 225 224 222 225 228 225 224 225 223 222 224 222 229 237 229 233 242 239 239 236 243 239 208 208 237 266 182 114 136 164 174 185 189 187 185 181 175 169 175 172 166 166 162 158 157 158 159 159 160 158 158 159 158
354 354 353 351 350 348 347 346 346 346 344 343 342 341 338 337 335 334 336 339 343 342 338 329 310 299 282 266 292 297 252 252 247 236 225 223 223 224 229 228 226 225 225 224 222 224 225 229 230 226 235 243 243 244 234 237 234 216 216 234 247 208 180 169 169 180 197 195 190 190 191 190 186 184 179 176 174 169 165 163 162 162 163 163 160 160 162 160
352 351 351 350 349 347 346 345 345 344 343 342 342 340 338 336 333 333 338 342 346 345 339 332 317 295 289 291 324 300 264 255 244 231 222 220 220 224 230 227 225 225 226 226 225 224 224 225 225 229 241 240 241 244 232 235 233 225 228 231 238 223 202 198 192 202 213 209 206 202 204 202 192 189 183 182 181 174 171 169 167 167 167 167 165 164 164 163
349 349 349 348 347 346 345 344 344 343 341 340 340 340 337 334 332 333 338 341 344 345 337 330 331 304 290 1 2 314 273 251 229 220 219 217 218 221 225 224 222 222 222 224 227 224 222 222 224 233 238 233 241 243 230 234 233 229 231 228 232 234 216 202 202 211 215 217 219 215 217 206 192 192 188 185 184 179 176 174 172 170 171 172 169 168 167 167
346 346 346 346 346 345 343 342 341 341 339 339 340 339 336 333 335 336 334 337 336 341 341 335 355 322 274 30 13 354 284 223 211 211 216 211 215 220 220 222 220 218 218 220 224 222 220 219 220 230 233 228 236 239 231 233 236 234 235 232 235 236 220 203 205 213 218 221 220 219 221 214 205 199 191 188 189 185 181 180 178 175 175 175 173 172 170 170
344 344 343 344 344 343 342 340 339 339 337 338 339 337 334 333 337 341 339 338 338 350 3 8 30 8 323 3 5 329 174 178 187 195 207 210 220 224 214 215 213 213 216 217 220 219 218 218 220 230 235 228 229 233 232 235 235 232 234 236 234 234 223 216 222 222 222 222 219 221 219 216 221 215 199 192 194 192 186 186 184 180 178 178 177 176 174 173
341 341 341 341 342 341 340 338 337 336 336 338 340 338 337 335 336 346 346 349 4 21 14 6 11 332 343 9 0 352 106 130 169 185 195 210 216 205 195 202 204 205 211 213 217 218 216 218 222 228 231 228 229 230 230 235 231 223 230 237 234 238 231 221 235 235 229 229 221 221 222 218 221 221 209 198 197 196 193 191 188 184 183 181 180 179 177 176
338 338 338 338 340 340 337 336 335 334 335 338 338 337 339 339 341 345 354 15 25 15 353 351 343 316 19 28 358 14 29 242 181 185 195 206 203 192 191 201 195 193 202 207 213 217 215 218 223 227 227 226 228 227 224 229 231 223 228 238 234 235 235 230 234 226 220 228 220 213 221 222 216 216 214 207 203 201 198 197 194 187 186 185 182 182 180 178
336 336 336 335 337 337 335 334 333 331 334 336 338 338 335 339 339 338 355 12 1 357 2 4 350 346 41 28 6 25 15 357 172 196 208 202 194 192 198 201 191 193 201 202 208 213 213 218 224 227 228 225 224 224 224 226 230 230 234 241 238 231 233 239 237 223 222 234 226 215 222 224 217 216 218 215 211 209 201 199 203 193 188 189 186 185 184 181
334 334 333 332 333 334 332 331 330 329 330 337 342 334 324 335 332 348 2 328 331 0 17 19 10 9 31 20 14 43 43 50 188 222 212 204 194 190 195 194 194 207 215 205 201 210 217 223 225 226 229 230 226 224 228 234 233 234 238 240 239 234 236 245 246 238 242 249 239 228 228 227 224 223 220 215 212 214 205 199 206 199 190 193 190 187 188 184
332 332 331 330 330 331 329 327 326 324 323 333 336 322 336 354 343 358 355 333 9 15 16 23 17 21 26 10 360 315 223 101 110 237 204 206 199 193 188 196 211 219 220 211 198 208 224 231 230 230 233 237 232 226 229 235 236 237 239 240 240 236 235 241 247 246 246 253 254 243 233 227 228 225 220 216 212 213 208 201 206 202 193 195 193 188 189 187
331 331 329 328 327 327 325 322 320 317 314 319 318 313 344 359 337 337 334 312 31 17 2 16 7 27 33 12 14 349 227 122 77 76 205 203 198 205 207 215 225 220 211 215 213 217 231 239 239 235 232 232 234 234 232 234 238 239 239 242 241 232 232 240 244 247 247 251 256 251 239 229 230 229 222 218 215 213 209 200 205 209 200 197 195 191 190 188
330 330 328 326 324 324 321 317 314 309 304 303 305 312 329 328 314 319 314 296 306 338 327 346 340 8 27 10 27 13 257 263 136 68 158 203 203 228 234 225 229 230 223 225 227 229 235 244 241 233 229 235 238 240 239 237 238 238 237 242 239 227 233 242 241 246 252 251 251 253 247 234 233 233 224 219 218 215 209 201 203 210 210 203 197 194 192 190
330 329 327 325 322 321 318 313 307 298 292 294 297 307 303 296 308 309 302 292 272 280 325 345 348 360 14 7 9 329 327 32 323 83 132 204 206 240 246 235 234 241 236 230 232 240 249 262 241 224 228 241 244 240 240 239 239 238 236 239 240 234 238 242 240 250 256 251 250 258 257 240 232 234 226 220 221 217 212 208 206 207 210 210 201 195 195 192
328 327 325 323 320 319 316 308 298 289 288 288 285 291 287 285 301 300 297 283 240 230 306 305 318 341 3 0 350 335 40 86 54 76 161 224 235 258 262 239 238 249 243 232 237 244 254 259 238 238 243 246 247 243 239 240 242 242 237 237 240 240 240 240 243 253 256 253 246 248 256 242 229 234 231 223 223 222 215 211 210 205 204 211 206 197 196 194
325 325 323 321 319 318 312 303 296 289 284 281 277 287 283 280 294 293 289 267 224 218 279 262 278 317 345 334 24 12 165 148 41 39 176 266 263 263 257 227 245 273 257 242 245 245 250 251 236 245 253 249 248 247 244 243 244 245 242 241 241 238 239 241 245 251 253 258 251 243 252 249 236 236 232 225 224 225 218 211 209 204 200 206 207 200 196 195
322 322 321 318 318 316 308 300 296 284 276 275 275 283 280 281 291 284 275 262 223 227 261 230 282 300 324 318 314 354 4 173 15 13 349 310 250 236 257 251 264 280 254 242 247 237 239 249 246 248 252 248 248 250 246 243 244 244 242 245 245 241 241 242 244 248 251 256 252 245 250 254 250 241 230 224 224 225 222 213 207 204 201 203 206 203 198 196
318 319 318 315 314 310 300 293 288 278 275 275 271 277 279 279 281 259 264 273 234 241 258 233 275 271 251 287 280 306 345 234 268 295 2 324 255 244 286 288 281 281 252 243 251 242 241 250 253 250 249 248 252 254 250 243 241 245 247 248 250 248 246 244 240 245 250 251 250 241 240 249 249 236 227 222 222 224 223 214 207 204 204 203 206 206 200 197
314 314 315 313 310 303 294 286 278 274 277 271 263 270 275 270 266 253 263 276 254 243 254 249 252 243 239 256 263 292 305 282 307 327 21 310 285 275 296 307 289 277 262 250 257 275 259 252 255 252 247 250 255 257 254 246 242 250 255 251 248 247 247 243 238 243 248 249 251 241 234 245 243 225 223 223 223 225 222 214 208 206 206 205 205 205 201 198
311 310 311 310 306 300 292 282 271 269 270 263 259 266 269 260 254 255 259 267 253 233 240 249 243 230 238 239 232 266 269 275 328 301 256 301 293 292 299 305 303 283 262 250 253 266 262 249 258 256 251 259 268 266 260 255 253 256 259 252 244 242 240 238 236 241 245 246 246 235 225 240 246 232 227 229 230 226 219 214 212 209 208 207 206 205 202 199
307 305 306 304 300 294 288 282 273 268 262 258 259 260 261 253 250 257 260 261 251 234 236 243 238 234 249 253 246 253 249 253 293 262 264 284 270 293 291 276 296 287 264 253 246 251 247 240 251 253 253 262 267 266 260 257 256 253 252 249 244 239 234 235 236 235 239 242 241 230 223 234 244 240 233 234 235 227 218 217 216 210 207 207 206 205 204 201
304 301 300 296 292 285 277 275 277 270 257 253 255 254 254 249 247 253 260 256 244 237 239 237 236 240 252 260 255 264 259 250 275 276 283 288 270 286 310 301 302 289 277 265 241 249 244 234 244 248 251 257 259 261 257 252 252 248 244 241 239 236 232 236 237 233 237 238 235 239 240 239 243 241 233 232 232 228 221 218 217 209 205 206 205 205 206 203
301 298 295 290 284 277 269 267 268 262 253 249 250 249 249 251 251 251 252 244 236 240 241 237 245 250 253 252 238 247 272 269 285 287 290 299 283 274 304 313 303 291 295 281 261 266 242 226 246 254 248 248 252 258 257 254 250 244 241 237 234 233 232 235 236 235 240 234 226 239 252 247 242 236 231 230 228 226 221 216 215 209 204 204 204 205 207 205
299 295 291 285 278 272 265 262 258 254 250 245 244 244 245 250 255 258 254 241 235 243 239 239 249 246 249 260 247 245 263 271 284 284 276 285 285 268 288 316 300 291 293 281 281 281 258 242 246 254 257 245 247 254 262 270 260 246 243 237 232 233 235 239 237 237 244 240 229 231 241 245 239 228 227 231 226 221 219 213 212 211 206 205 205 205 206 205
297 291 286 281 275 268 261 257 251 247 245 242 242 243 243 246 250 255 254 242 236 239 233 238 251 248 243 250 261 261 264 270 277 276 270 279 293 286 299 333 324 305 294 285 296 282 265 259 230 246 275 266 259 258 260 266 258 252 249 234 228 234 237 240 245 246 245 243 239 232 233 240 237 227 228 232 226 217 217 213 209 209 208 206 208 207 206 206
294 286 281 276 272 265 257 252 245 241 241 241 243 243 242 246 251 258 252 239 240 240 237 238 244 251 244 235 243 252 254 266 278 275 263 269 288 288 297 313 313 308 300 289 294 279 264 261 230 254 268 260 268 269 256 255 250 249 251 238 233 241 244 244 248 249 241 237 240 237 235 233 226 229 234 235 229 220 217 218 213 209 207 207 209 209 207 208
288 282 278 271 265 261 255 248 241 238 241 242 244 246 246 247 251 257 250 242 245 246 248 246 237 246 252 242 238 233 240 258 266 273 264 257 267 272 288 299 295 300 303 289 281 280 277 270 254 263 267 253 274 275 258 251 246 241 245 245 241 243 245 243 241 240 235 235 240 240 237 229 222 231 241 241 238 230 224 222 217 213 211 210 210 208 207 210
284 279 273 265 260 259 253 244 238 237 241 244 246 247 249 251 249 249 245 242 246 244 246 249 243 246 253 252 242 224 238 254 245 262 273 259 259 274 284 289 287 294 298 282 268 271 280 271 249 258 277 263 270 270 253 244 247 245 244 244 238 236 237 234 234 238 235 234 238 239 235 228 223 231 234 235 238 240 238 230 222 217 214 213 213 208 207 210
279 275 269 260 258 257 249 240 237 239 241 245 247 246 246 250 249 247 243 241 243 243 242 247 250 247 244 251 259 239 243 259 262 268 269 258 266 281 283 285 287 295 296 278 269 276 281 270 254 261 284 273 267 263 252 255 258 248 242 241 236 236 236 230 234 243 239 233 234 240 236 227 224 233 236 238 239 241 244 238 230 223 215 213 215 211 208 210
274 271 267 258 255 251 242 238 239 241 243 245 248 248 246 248 246 242 241 240 239 239 245 248 245 241 241 251 265 257 250 260 272 273 264 257 269 271 272 278 281 294 299 275 269 273 266 263 265 264 264 271 272 260 255 267 264 244 238 239 235 233 233 227 231 238 235 231 230 238 241 228 224 236 242 248 248 238 234 239 238 229 218 213 215 213 210 210
272 268 264 256 250 242 237 240 242 243 246 247 248 250 248 247 245 239 236 239 238 238 246 250 246 244 248 253 255 253 253 258 262 267 265 264 272 271 270 279 279 287 294 278 273 271 258 265 278 266 254 267 276 268 262 266 270 260 247 241 238 236 232 229 236 238 231 229 230 236 241 230 224 240 242 238 243 240 231 235 249 237 221 214 214 213 212 210
267 265 264 255 245 236 236 244 245 244 247 246 248 250 247 245 245 241 236 237 238 238 240 245 248 249 253 256 255 252 256 257 253 257 260 261 272 277 274 282 283 283 285 280 280 279 267 271 278 269 262 266 266 266 267 266 272 271 255 246 244 236 228 227 239 246 239 233 233 237 241 231 226 241 240 226 231 241 240 236 247 248 227 215 213 213 213 211
263 266 264 251 241 236 239 246 246 245 247 246 248 249 246 243 243 241 238 237 237 236 237 239 244 246 248 252 253 252 254 253 250 258 268 266 267 273 278 283 282 277 278 280 279 274 268 266 269 270 269 265 257 263 268 263 261 258 250 251 248 238 234 232 237 249 246 238 237 238 235 228 228 237 237 232 233 238 246 242 248 259 236 216 214 213 212 211
266 267 261 248 239 237 241 245 245 246 247 247 248 247 245 245 243 239 237 236 235 235 237 240 240 242 244 245 247 249 250 249 248 256 268 269 264 265 274 280 278 272 277 283 285 281 272 267 268 271 269 261 252 260 266 257 254 254 251 252 247 240 243 240 239 246 244 237 240 238 230 229 238 242 242 246 243 233 239 248 253 262 247 223 219 215 212 210
266 262 257 248 240 239 241 245 250 253 250 246 246 245 244 243 241 240 239 239 237 235 239 240 238 239 241 241 243 245 249 254 253 253 260 264 264 266 270 272 272 276 285 283 277 278 274 273 275 271 269 266 260 268 274 261 256 257 245 240 243 242 242 242 241 242 239 238 240 233 227 233 241 245 251 253 248 235 232 241 245 251 251 235 224 219 213 210
262 257 254 247 241 241 243 246 251 254 253 249 245 243 243 242 239 239 240 240 238 235 239 242 239 238 239 238 241 244 245 247 252 259 263 262 264 263 260 266 268 274 293 282 268 268 269 271 272 265 264 270 271 276 279 263 257 261 254 246 250 249 249 253 249 244 243 243 238 228 227 239 243 243 252 254 248 240 235 240 242 242 248 242 231 225 218 212
255 256 256 251 245 242 242 245 247 247 249 251 249 245 242 241 240 235 233 237 239 237 239 242 240 239 239 237 241 244 243 241 247 259 263 261 264 259 253 268 270 267 279 274 261 259 264 267 267 261 258 263 266 271 275 266 259 262 261 255 254 251 249 249 249 254 254 244 236 233 237 243 241 237 246 252 248 242 242 248 249 242 242 243 235 230 225 217
253 257 259 254 248 245 244 245 245 245 245 246 249 249 243 239 239 234 229 236 240 237 237 239 238 238 239 238 239 242 241 239 244 255 258 258 262 260 255 265 263 254 268 269 255 254 265 268 270 270 264 265 267 267 267 265 262 263 262 256 255 252 246 242 241 248 253 247 240 240 242 244 242 236 241 246 239 235 243 248 249 243 239 239 236 233 231 224
256 257 256 252 249 251 254 255 251 248 246 245 246 247 245 241 239 236 235 238 239 236 236 238 237 237 238 239 240 242 242 242 245 252 256 255 258 260 263 267 257 246 263 270 255 250 262 267 271 275 274 272 272 268 263 261 260 262 260 254 253 253 248 245 242 240 244 248 246 242 242 245 243 235 235 237 233 235 245 243 239 240 238 238 238 235 234 230
257 256 255 254 252 252 255 255 252 248 247 248 247 246 245 245 243 241 240 240 240 236 234 238 240 238 237 237 238 240 242 245 249 253 254 252 254 258 265 272 265 250 259 272 261 248 255 265 271 275 276 274 271 266 260 259 260 259 255 250 251 253 248 244 245 244 245 250 251 248 247 245 242 238 236 234 231 235 240 236 232 233 235 239 239 235 234 233
257 255 254 254 253 251 252 250 248 248 248 247 246 246 246 245 244 244 243 241 240 238 237 239 240 240 241 240 238 239 240 242 248 254 254 251 250 250 254 263 265 261 268 275 265 250 253 263 268 267 268 272 271 264 259 263 269 267 260 253 249 249 247 245 245 244 246 252 253 249 247 243 242 249 245 234 232 235 233 231 233 233 234 237 236 232 232 234
260 255 251 251 251 250 251 249 246 246 248 248 247 247 247 246 244 244 245 242 240 241 245 246 242 240 241 240 240 242 242 243 249 254 252 246 244 246 249 257 264 270 277 278 267 256 255 260 265 264 266 270 272 269 269 276 276 268 262 259 252 247 248 251 249 241 236 242 245 243 244 244 244 251 250 236 233 238 236 235 238 236 232 231 229 229 227 226